x

8413320 - Bar Harbor, Me (atgm1) Weather Station

6:54 - Sun 23rd Apr 2017 All times are EDT. -4 hours from GMT.

  • Wind
    1mph, 7mph gusts
  • Sea Temp 41°f
  • Luft Temp 48°f
  • Sea Pressure 1015.6mb
  • 8413320 - Bar Harbor, Me
  • 8413320 - Bar Harbor, Me

More Historic Weather Station data

Upgrade to MSW Pro to gain access to the past 30 days of data for over 8000 Wavebouys and Weather Stations around the globe.

Join Pro

Comparision Forecast

View Surf forecast
   
So 04/23 6:54 1 7 mph 1015.6mb 41f 48f
6:48 3 6 mph 1015.6mb 41f 47f
6:42 5 7 mph 1015.6mb 41f 46f
6:36 5 9 mph 1015.5mb 41f 46f
6:30 8 10 mph 1015.4mb 41f 46f
6:24 9 11 mph 1015.4mb 41f 46f
6:18 6 8 mph 1015.3mb 41f 48f
6:12 3 9 mph 1015.3mb 41f 48f
6:06 5 6 mph 1015.3mb 41f 49f
6:00 3 6 mph 1015.4mb 41f 50f
5:48 1 10 mph 1015.5mb 42f 51f
5:42 6 13 mph 1015.5mb 42f 50f
5:36 6 11 mph 1015.6mb 42f 50f
5:30 5 9 mph 1015.6mb 42f 51f
5:24 5 9 mph 1015.7mb 42f 51f
5:18 5 9 mph 1015.7mb 42f 51f
5:12 3 6 mph 1015.6mb 42f 51f
5:06 6 9 mph 1015.5mb 42f 49f
5:00 8 10 mph 1015.5mb 42f 48f
4:54 7 9 mph 1015.5mb 42f 48f
4:48 7 11 mph 1015.5mb 42f 48f
4:42 10 14 mph 1015.4mb 42f 46f
4:36 8 13 mph 1015.4mb 42f 47f
4:30 9 14 mph 1015.3mb 42f 49f
4:24 9 13 mph 1015.4mb 42f 47f
4:18 7 15 mph 1015.3mb 42f 48f
4:12 9 15 mph 1015.3mb 42f 48f
4:06 8 13 mph 1015.3mb 42f 48f
4:00 8 14 mph 1015.2mb 42f 48f
3:54 8 11 mph 1015.3mb 42f 49f
3:48 8 13 mph 1015.3mb 42f 49f
3:42 8 13 mph 1015.5mb 42f 48f
3:36 7 14 mph 1015.5mb 42f 49f
3:30 8 13 mph 1015.6mb 42f 47f
3:24 8 10 mph 1015.7mb 42f 48f
3:18 9 11 mph 1015.7mb 42f 47f
3:12 8 9 mph 1015.7mb 42f 47f
3:06 8 9 mph 1015.8mb 42f 47f
3:00 6 9 mph 1015.7mb 42f 47f
2:54 6 10 mph 1015.8mb 42f 47f
2:48 8 10 mph 1015.7mb 42f 46f
2:42 8 10 mph 1015.8mb 42f 46f
2:36 8 10 mph 1015.9mb 42f 45f
2:30 9 10 mph 1016mb 42f 44f
2:24 5 6 mph 1016.1mb 42f 46f
2:18 5
mph
1016.1mb 42f 46f
2:12 2 3 mph 1016.1mb 41f 46f
2:06 3 5 mph 1016mb 41f 46f
2:00 3 5 mph 1016.1mb 42f 45f
1:54 3
mph
1016.1mb 41f 45f
1:48 2 3 mph 1016.1mb 41f 45f
1:42 3 6 mph 1016.2mb 41f 45f
1:36 6 7 mph 1016.1mb 41f 45f
1:30 6 7 mph 1016.2mb 41f 45f
1:24 8
mph
1016.2mb 41f 44f
1:18 6 8 mph 1016.2mb 41f 44f
1:12 7 8 mph 1016.2mb 41f 44f
1:06 3 6 mph 1016.3mb 41f 44f
1:00 5 7 mph 1016.3mb 41f 44f
12:54 3 7 mph 1016.3mb 41f 44f
12:48 6 7 mph 1016.5mb 41f 44f
12:42 5 9 mph 1016.5mb 41f 44f
12:36 6 7 mph 1016.5mb 41f 44f
12:30 6 9 mph 1016.6mb 41f 44f
12:24 6 9 mph 1016.6mb 41f 44f
12:18 6 9 mph 1016.6mb 41f 44f
12:12 8 10 mph 1016.6mb 41f 44f
12:06 9 10 mph 1016.6mb 41f 44f
12:00 7 11 mph 1016.6mb 41f 44f
11:54 6 9 mph 1016.6mb 41f 44f
11:48 6 10 mph 1016.7mb 41f 43f
11:42 6 7 mph 1016.6mb 41f 43f
11:36 6 8 mph 1016.6mb 41f 43f
11:30 6 9 mph 1016.6mb 41f 43f
11:24 6 8 mph 1016.6mb 41f 43f
11:18 5 9 mph 1016.6mb 41f 42f
11:12 7 9 mph 1016.6mb 41f 42f
11:06 8 9 mph 1016.7mb 41f 42f
11:00 7 9 mph 1016.7mb 41f 42f
10:54 8 9 mph 1016.7mb 41f 42f
10:48 7 9 mph 1016.7mb 41f 42f
10:42 6 7 mph 1016.6mb 41f 41f
10:36 6 9 mph 1016.6mb 41f 41f
10:30 6 8 mph 1016.6mb 41f 41f
10:24 6 8 mph 1016.5mb 41f 41f
10:18 6 7 mph 1016.4mb 41f 41f
10:12 5 7 mph 1016.4mb 41f 41f
10:06 3 7 mph 1016.4mb 41f 41f
10:00 5 7 mph 1016.4mb 41f 41f
9:54 7 9 mph 1016.5mb 41f 40f
9:48 6 7 mph 1016.5mb 41f 40f
9:42 6 7 mph 1016.5mb 41f 40f
9:36 5 8 mph 1016.4mb 41f 40f
9:30 8 9 mph 1016.3mb 41f 40f
9:24 7 10 mph 1016.3mb 41f 40f
9:18 9 13 mph 1016.3mb 41f 40f
9:12 10 13 mph 1016.2mb 41f 40f
9:06 7 11 mph 1016.1mb 41f 40f
9:00 7 10 mph 1016mb 41f 39f
8:54 7 9 mph 1016mb 41f 39f
8:48 6 8 mph 1016mb 41f 39f
8:42 6 10 mph 1015.9mb 41f 39f
8:36 8 9 mph 1015.8mb 41f 39f
8:30 7 10 mph 1015.7mb 41f 39f
8:24 7 10 mph 1015.7mb 41f 38f
8:18 6 8 mph 1015.6mb 41f 38f
8:12 7 9 mph 1015.5mb 41f 38f
8:06 7 8 mph 1015.5mb 41f 38f
8:00 7 9 mph 1015.5mb 41f 38f
7:54 6 8 mph 1015.4mb 41f 38f
7:48 7 8 mph 1015.4mb 41f 38f
7:42 7 8 mph 1015.3mb 41f 38f
7:36 7 8 mph 1015.2mb 41f 37f
7:30 5 6 mph 1015.1mb 41f 37f
7:24 6 8 mph 1015.1mb 41f 37f
7:18 6 7 mph 1015.1mb 41f 37f
7:12 6 8 mph 1015.1mb 41f 37f
7:06 6 9 mph 1015mb 41f 37f
7:00 7 9 mph 1015mb 41f 37f
6:54 8 11 mph 1014.9mb 41f 37f
6:48 9 10 mph 1014.9mb 41f 37f
6:42 9 13 mph 1014.9mb 41f 37f
6:36 10 13 mph 1014.9mb 41f 37f
6:30 10 11 mph 1014.6mb 41f 37f
6:24 9 11 mph 1014.5mb 41f 37f
6:18 9 10 mph 1014.4mb 41f 37f
6:12 8 9 mph 1014.3mb 41f 37f
6:06 8 10 mph 1014.3mb 41f 37f
6:00 8 10 mph 1014.2mb 41f 37f
5:54 7 9 mph 1014mb 41f 37f
5:48 5 6 mph 1013.9mb 41f 37f
5:42 3 6 mph 1013.8mb 41f 36f
5:36 5 7 mph 1013.8mb 41f 36f
5:30 6 8 mph 1013.7mb 41f 36f
5:24 6 8 mph 1013.5mb 41f 36f
5:18 6 8 mph 1013.5mb 41f 36f
5:12 6 7 mph 1013.4mb 41f 36f
5:06 7 8 mph 1013.5mb 41f 36f
5:00 8 10 mph 1013.5mb 41f 36f
4:54 7 10 mph 1013.5mb 41f 36f
4:48 9 10 mph 1013.3mb 41f 37f
4:42 9 10 mph 1013.2mb 41f 37f
4:36 8 9 mph 1013mb 41f 37f
4:30 8 9 mph 1012.9mb 41f 37f
4:24 9 10 mph 1012.9mb 41f 37f
4:18 9 10 mph 1013mb 41f 37f
4:12 9 10 mph 1013mb 41f 37f
4:06 9 13 mph 1013mb 41f 37f
4:00 10 13 mph 1013.1mb 41f 37f
3:54 10 13 mph 1013.1mb 41f 37f
3:48 9 11 mph 1013.2mb 41f 37f
3:42 8 11 mph 1013.2mb 41f 37f
3:36 9 10 mph 1013.3mb 41f 37f
3:30 9 10 mph 1013.4mb 41f 37f
3:24 9 11 mph 1013.3mb 41f 37f
3:18 8 9 mph 1013.3mb 41f 37f
3:12 9 10 mph 1013.2mb 41f 37f
3:06 8 9 mph 1013.1mb 41f 37f
3:00 6 8 mph 1013mb 41f 37f
2:54 6 10 mph 1013.1mb 41f 37f
2:48 8 9 mph 1013mb 41f 37f
2:42 7 9 mph 1013mb 41f 37f
2:36 8 10 mph 1013mb 41f 37f
2:30 8 10 mph 1013mb 41f 37f
2:24 8 11 mph 1012.8mb 41f 37f
2:18 8 11 mph 1012.9mb 41f 37f
2:12 9 11 mph 1013mb 41f 37f
2:06 8 10 mph 1012.9mb 41f 37f
2:00 7 9 mph 1012.8mb 41f 37f
1:54 7 11 mph 1012.7mb 41f 37f
1:48 8 10 mph 1012.7mb 41f 37f
1:42 7 10 mph 1012.6mb 41f 37f
1:36 7 10 mph 1012.6mb 41f 37f
1:30 8 10 mph 1012.6mb 41f 37f
1:24 8 13 mph 1012.6mb 41f 37f
1:18 7 9 mph 1012.7mb 41f 37f
1:12 6 9 mph 1012.7mb 41f 37f
1:06 7 9 mph 1012.6mb 41f 37f
1:00 6 10 mph 1012.5mb 41f 37f
12:54 7 8 mph 1012.5mb 41f 37f
12:48 5 7 mph 1012.4mb 41f 37f
12:42 7 10 mph 1012.4mb 41f 37f
12:36 6 9 mph 1012.5mb 41f 37f
12:30 6 9 mph 1012.6mb 41f 37f
12:24 6 9 mph 1012.7mb 41f 37f
12:18 6 9 mph 1012.7mb 41f 37f
12:12 7 9 mph 1012.9mb 41f 37f
12:06 5 8 mph 1012.8mb 41f 37f
12:00 8 10 mph 1012.8mb 41f 36f
Sa 04/22 11:54 6 9 mph 1012.8mb 41f 36f
11:48 6 8 mph 1012.9mb 41f 36f
11:42 6 9 mph 1013mb 41f 36f
11:36 6 8 mph 1013.2mb 41f 37f
11:30 6 8 mph 1013.2mb 41f 37f
11:24 6 9 mph 1013.1mb 41f 36f
11:18 6 8 mph 1012.9mb 41f 36f
11:12 6 9 mph 1012.9mb 41f 36f
11:06 6 9 mph 1013mb 41f 36f
11:00 6 7 mph 1013.1mb 41f 36f
10:54 6 8 mph 1013.2mb 41f 36f
10:48 5 7 mph 1013.2mb 41f 37f
10:42 5 8 mph 1013.3mb 41f 37f
10:36 6 8 mph 1013.3mb 41f 36f
10:30 6 8 mph 1013.4mb 41f 36f
10:24 6 8 mph 1013.3mb 41f 37f
10:18 6 8 mph 1013.2mb 41f 36f
10:12 7 8 mph 1013.1mb 41f 37f
10:06 6 8 mph 1013.1mb 41f 37f
10:00 3 5 mph 1013.2mb 41f 37f
9:48 5 6 mph 1013.4mb 41f 37f
9:42 3 5 mph 1013.4mb 41f 37f
9:36 5 7 mph 1013.4mb 41f 37f
9:30 6 8 mph 1013.5mb 41f 37f
9:24 5 6 mph 1013.8mb 41f 37f
9:18 5 6 mph 1013.8mb 41f 37f
9:12 5 6 mph 1013.7mb 41f 36f
9:06 6 9 mph 1013.8mb 41f 37f
9:00 7 9 mph 1013.8mb 41f 36f
8:48 7 9 mph 1013.7mb 41f 36f
8:42 9 13 mph 1013.8mb 41f 36f
8:36 8 10 mph 1013.8mb 41f 37f
8:30 9 10 mph 1013.9mb 41f 37f
8:24 8 13 mph 1014mb 41f 37f
8:18 10 11 mph 1014.1mb 41f 37f
8:12 5 9 mph 1014mb 41f 38f
8:06 7 10 mph 1014mb 41f 37f
8:00 5 9 mph 1014mb 41f 38f
7:48 7 9 mph 1014mb 41f 38f
7:42 6 9 mph 1013.9mb 41f 38f
7:36 7 9 mph 1014mb 41f 38f
7:30 7 9 mph 1013.9mb 41f 38f
7:24 6 8 mph 1013.8mb 41f 38f
7:12 5 9 mph 1013.7mb 41f 38f
7:06 7 8 mph 1013.6mb 41f 38f
7:00 8 9 mph 1013.6mb 41f 38f
6:48 8 9 mph 1013.7mb 41f 38f
6:42 8 9 mph 1013.8mb 41f 38f
6:36 8 10 mph 1013.7mb 41f 38f
6:30 8 10 mph 1013.6mb 41f 38f
6:24 8 9 mph 1013.7mb 41f 38f
6:18 8 9 mph 1013.9mb 41f 37f
6:12 6 8 mph 1013.8mb 41f 37f
6:06 6 8 mph 1013.8mb 41f 37f
6:00 6 9 mph 1013.8mb 41f 37f
5:48 8 9 mph 1013.9mb 41f 37f
5:42 7 9 mph 1014mb 41f 37f
5:36 6 7 mph 1014mb 41f 37f
5:30 6 7 mph 1014mb 41f 37f
5:24 8 9 mph 1014.1mb 41f 37f
5:18 6 8 mph 1014mb 41f 37f
5:12 5 7 mph 1014mb 41f 37f
5:06 7 8 mph 1013.9mb 41f 37f
5:00 6 8 mph 1014mb 41f 37f
4:54 7 9 mph 1014mb 41f 37f
4:48 8 9 mph 1014.1mb 41f 37f
4:42 6 8 mph 1014mb 41f 37f
4:36 6 8 mph 1014mb 41f 37f
4:30 6 7 mph 1014.1mb 41f 37f
4:24 6 7 mph 1014.1mb 41f 37f
4:18 6 8 mph 1014.1mb 41f 37f
4:12 6 9 mph 1014.2mb 41f 37f
4:06 8 10 mph 1014.3mb 41f 37f
4:00 8 10 mph 1014.2mb 41f 37f
3:54 9 10 mph 1014.2mb 41f 37f
3:48 8 9 mph 1014.2mb 41f 37f
3:42 8 10 mph 1014.4mb 41f 37f
3:36 8 9 mph 1014.3mb 41f 37f
3:30 7 9 mph 1014.3mb 41f 37f
3:24 7 10 mph 1014.4mb 41f 37f
3:18 9 11 mph 1014.3mb 41f 37f
3:12 9 13 mph 1014.1mb 41f 37f
3:06 13 14 mph 1013.7mb 41f 37f
3:00 13 14 mph 1013.7mb 41f 37f
2:54 11 13 mph 1014.2mb 41f 37f
2:48 11 14 mph 1014.4mb 41f 37f
2:42 13 16 mph 1014.3mb 41f 37f
2:36 11 14 mph 1014.4mb 41f 37f
2:30 11 14 mph 1014.6mb 41f 37f
2:24 13 15 mph 1014.4mb 41f 37f
2:18 13 14 mph 1014.3mb 41f 37f
2:12 8 9 mph 1014.6mb 41f 37f
2:06 9 11 mph 1014.9mb 41f 37f
2:00 11 14 mph 1014.8mb 41f 37f
1:54 11 13 mph 1014.8mb 41f 37f
1:48 9 11 mph 1015.1mb 41f 37f
1:42 9 11 mph 1015mb 41f 37f
1:36 9 13 mph 1015mb 41f 37f
1:30 10 11 mph 1014.7mb 41f 37f
1:24 8 10 mph 1014.8mb 41f 37f
1:18 9 11 mph 1015mb 41f 37f
1:12 9 11 mph 1015mb 41f 37f
1:06 10 13 mph 1015mb 41f 37f
1:00 11 13 mph 1015mb 41f 37f
12:54 11 14 mph 1014.9mb 41f 37f
12:48 11 14 mph 1015mb 41f 37f
12:42 10 15 mph 1015mb 41f 37f
12:36 13 15 mph 1015mb 41f 37f
12:30 14 16 mph 1014.9mb 41f 37f
12:24 13 16 mph 1014.9mb 41f 37f
12:18 14 17 mph 1014.9mb 41f 37f
12:12 14 16 mph 1015.1mb 41f 37f
12:06 15 20 mph 1015.3mb 41f 37f
12:00 15 18 mph 1015.5mb 41f 37f
11:54 14 20 mph 1015.6mb 41f 37f
11:48 15 21 mph 1015.5mb 41f 37f
11:42 15 18 mph 1015.5mb 41f 37f
11:36 15 20 mph 1015.6mb 41f 37f
11:30 15 20 mph 1015.6mb 41f 37f
11:24 16 22 mph 1015.6mb 41f 37f
11:18 17 21 mph 1015.6mb 41f 37f
11:12 17 21 mph 1015.7mb 41f 37f
11:06 16 21 mph 1015.6mb 41f 37f
11:00 17 21 mph 1015.7mb 41f 37f
10:54 15 20 mph 1015.9mb 41f 37f
10:48 15 20 mph 1016.3mb 41f 37f
10:42 17 20 mph 1016.5mb 41f 37f
10:36 16 18 mph 1016.4mb 41f 37f
10:30 17 20 mph 1016.3mb 41f 37f
10:24 17 22 mph 1016.3mb 41f 37f
10:18 17 22 mph 1016.2mb 41f 37f
10:12 16 21 mph 1016.3mb 41f 37f
10:06 18 22 mph 1016.4mb 41f 37f
10:00 16 22 mph 1016.4mb 41f 38f
9:54 16 18 mph 1016.7mb 41f 38f
9:48 14 16 mph 1016.8mb 41f 38f
9:42 14 18 mph 1016.8mb 41f 38f
9:36 14 17 mph 1016.8mb 41f 38f
9:30 15 17 mph 1016.7mb 41f 38f
9:24 15 17 mph 1016.8mb 41f 38f
9:18 13 17 mph 1016.7mb 41f 38f
9:12 14 20 mph 1016.7mb 41f 38f
9:06 14 21 mph 1016.6mb 41f 38f
9:00 15 20 mph 1016.6mb 41f 38f
8:54 16 21 mph 1016.4mb 41f 38f
8:48 18 22 mph 1016.4mb 41f 38f
8:42 18 23 mph 1016.5mb 41f 38f
8:36 20 24 mph 1016.6mb 41f 38f
8:30 21 24 mph 1016.6mb 41f 38f
8:24 22 25 mph 1016.7mb 41f 38f
8:18 20 24 mph 1016.5mb 41f 39f
8:12 22 25 mph 1016.5mb 41f 39f
8:06 21 24 mph 1016.6mb 41f 39f
8:00 21 23 mph 1016.6mb 41f 39f
7:54 21 24 mph 1016.6mb 41f 39f
7:48 18 22 mph 1016.7mb 41f 39f
7:42 18 22 mph 1016.7mb 41f 39f
7:36 17 22 mph 1016.6mb 41f 39f
7:30 17 20 mph 1016.6mb 41f 39f
7:24 15 18 mph 1016.6mb 41f 39f
7:18 14 17 mph 1016.6mb 41f 38f
7:12 16 20 mph 1016.6mb 41f 38f
7:06 16 20 mph 1016.7mb 41f 38f
7:00 17 20 mph 1016.7mb 41f 38f
6:54 15 20 mph 1016.7mb 41f 38f
6:48 16 21 mph 1016.6mb 41f 38f
6:42 17 21 mph 1016.7mb 41f 38f
6:36 16 20 mph 1016.6mb 41f 38f
6:30 18 21 mph 1016.6mb 41f 38f
6:24 15 18 mph 1016.7mb 41f 38f
6:18 14 18 mph 1016.8mb 41f 38f
6:12 13 17 mph 1016.8mb 41f 38f
6:06 14 16 mph 1016.8mb 41f 38f
6:00 11 13 mph 1016.9mb 41f 37f
5:54 11 14 mph 1017mb 41f 37f
5:48 11 14 mph 1017mb 41f 37f
5:42 13 16 mph 1017.1mb 41f 37f
5:36 13 18 mph 1017mb 41f 37f
5:30 15 17 mph 1017.1mb 41f 37f
5:24 15 20 mph 1017.1mb 41f 37f
5:18 17 20 mph 1017.1mb 41f 37f
5:12 14 17 mph 1017.1mb 41f 38f
5:06 15 20 mph 1017.1mb 41f 38f
5:00 17 22 mph 1017.1mb 41f 38f
4:54 17 22 mph 1017.1mb 41f 38f
4:48 20 22 mph 1017.1mb 41f 38f
4:42 16 21 mph 1017.2mb 41f 38f
4:36 17 21 mph 1017.1mb 41f 38f
4:30 17 20 mph 1017.3mb 41f 38f
4:24 18 22 mph 1017.3mb 41f 38f
4:18 20 21 mph 1017.4mb 41f 38f
4:12 18 22 mph 1017.6mb 41f 38f
4:06 18 22 mph 1017.7mb 41f 38f
4:00 20 23 mph 1017.7mb 41f 38f
3:54 17 22 mph 1017.6mb 41f 38f
3:48 17 18 mph 1017.8mb 41f 38f
3:42 15 18 mph 1017.9mb 41f 37f
3:36 16 17 mph 1017.9mb 41f 38f
3:30 14 15 mph 1018mb 41f 38f
3:24 11 13 mph 1018.1mb 41f 38f
3:18 9 10 mph 1018.2mb 41f 38f
3:12 10 11 mph 1018.3mb 41f 38f
3:06 8 10 mph 1018.2mb 41f 38f
3:00 9 11 mph 1018.2mb 41f 38f
2:54 8 9 mph 1018.2mb 41f 38f
2:48 9 10 mph 1018.3mb 41f 38f
2:42 8 10 mph 1018.2mb 41f 38f
2:36 8
mph
1018.1mb 41f 38f
2:30 6
mph
1018.2mb 41f 38f
2:24 6 7 mph 1018.3mb 41f 38f
2:18 7 9 mph 1018.4mb 41f 38f
2:12 8 9 mph 1018.3mb 41f 38f
2:06 8 9 mph 1018.4mb 41f 38f
2:00 9 11 mph 1018.3mb 41f 38f
1:54 9 10 mph 1018.3mb 41f 38f
1:48 6 8 mph 1018.5mb 41f 39f
1:42 8 9 mph 1018.6mb 41f 39f
1:36 8 10 mph 1018.5mb 41f 39f
1:30 9 10 mph 1018.5mb 41f 39f
1:24 8 9 mph 1018.7mb 41f 39f
1:18 9 11 mph 1018.7mb 41f 39f
1:12 9 10 mph 1018.7mb 41f 39f
1:06 7 8 mph 1018.8mb 41f 39f
1:00 6 7 mph 1019.1mb 41f 39f
12:54 6 7 mph 1019.1mb 41f 39f
12:48 6 7 mph 1019.1mb 41f 39f
12:42 6
mph
1019.3mb 41f 39f
12:36 6
mph
1019.2mb 41f 39f
12:30 3 5 mph 1019.5mb 41f 39f
12:24 3 5 mph 1019.4mb 41f 39f
12:18 5 6 mph 1019.3mb 41f 39f
12:12 3 5 mph 1019.4mb 41f 39f
12:06 3 5 mph 1019.4mb 41f 39f
12:00 5
mph
1019.3mb 41f 39f
Fr 04/21 11:54 3 5 mph 1019.3mb 41f 39f
11:48 5 6 mph 1019.3mb 41f 39f
11:42 7
mph
1019.3mb 41f 39f
11:36 7
mph
1019.2mb 41f 39f
11:30 6 8 mph 1019.3mb 41f 39f
11:24 7 8 mph 1019.3mb 41f 39f
11:18 7 9 mph 1019.4mb 41f 39f
11:12 8 9 mph 1019.3mb 41f 39f
11:06 9 11 mph 1019.3mb 41f 39f
11:00 10 13 mph 1019.2mb 41f 39f
10:54 10 13 mph 1019.3mb 41f 39f
10:48 11 14 mph 1019.2mb 41f 39f
10:42 14 15 mph 1019mb 41f 39f
10:36 14 17 mph 1019mb 41f 39f
10:30 14 17 mph 1018.9mb 41f 39f
10:24 15 16 mph 1018.9mb 41f 39f
10:18 10 16 mph 1019.1mb 41f 39f
10:12 13 15 mph 1019.3mb 41f 39f
10:06 10 15 mph 1019.3mb 41f 39f
10:00 13 17 mph 1019.2mb 41f 39f
9:48 14 17 mph 1019.2mb 41f 39f
9:42 16 20 mph 1019.2mb 41f 39f
9:36 13 20 mph 1019.3mb 41f 39f
9:30 15 20 mph 1019.3mb 41f 39f
9:24 18 21 mph 1019.1mb 41f 39f
9:18 16 22 mph 1019mb 42f 39f
9:12 17 21 mph 1019mb 41f 39f
9:06 14 22 mph 1019mb 41f 39f
9:00 17 21 mph 1019.1mb 41f 39f
8:48 17 21 mph 1019.3mb 41f 39f
8:42 18 22 mph 1019.1mb 41f 39f
8:36 18 21 mph 1019mb 41f 39f
8:30 17 21 mph 1019mb 41f 39f
8:24 17 20 mph 1019.3mb 41f 39f
8:18 16 20 mph 1019.4mb 41f 39f
8:12 13 17 mph 1019.5mb 41f 39f
8:06 14 18 mph 1019.5mb 41f 39f
8:00 15 17 mph 1019.4mb 41f 39f
7:48 15 16 mph 1019.5mb 41f 39f
7:42 13 15 mph 1019.7mb 41f 39f
7:36 10 14 mph 1019.8mb 41f 39f
7:30 13 16 mph 1019.5mb 41f 39f
7:24 14 18 mph 1019.5mb 41f 39f
7:12 20 21 mph 1019.2mb 41f 39f
7:06 18 21 mph 1019.5mb 41f 39f
7:00 17 21 mph 1019.6mb 41f 39f
6:48 16 20 mph 1019.8mb 41f 39f
6:42 17 22 mph 1019.8mb 41f 39f
6:36 17 22 mph 1019.7mb 41f 39f
6:30 18 21 mph 1019.7mb 41f 39f
6:24 18 21 mph 1019.7mb 41f 39f
6:18 15 21 mph 1019.8mb 41f 39f
6:12 17 20 mph 1019.9mb 41f 39f
6:06 17 20 mph 1019.8mb 41f 39f
6:00 18 22 mph 1019.8mb 41f 39f
5:48 16 20 mph 1020mb 41f 39f
5:42 16 20 mph 1020.1mb 41f 39f
5:36 16 20 mph 1020.3mb 41f 39f
5:30 15 17 mph 1020.3mb 41f 39f
5:24 15 18 mph 1020.3mb 41f 39f
5:18 16 20 mph 1020.3mb 41f 39f
5:12 15 21 mph 1020.2mb 41f 39f
5:06 15 20 mph 1020.1mb 41f 39f
5:00 17 21 mph 1020mb 41f 39f
4:54 16 21 mph 1020.1mb 41f 40f
4:48 16 20 mph 1020mb 41f 40f
4:42 16 18 mph 1020.2mb 41f 40f
4:36 13 17 mph 1020.3mb 41f 40f
4:30 15 16 mph 1020.4mb 41f 40f
4:24 14 17 mph 1020.5mb 41f 40f
4:18 15 17 mph 1020.6mb 41f 40f
4:12 14 17 mph 1020.6mb 41f 40f
4:06 11 15 mph 1020.6mb 41f 40f
4:00 11 16 mph 1020.6mb 41f 40f
3:54 11 17 mph 1020.5mb 41f 40f
3:48 13 16 mph 1020.5mb 41f 40f
3:42 13 18 mph 1020.5mb 41f 40f
3:36 14 17 mph 1020.5mb 41f 40f
3:30 14 18 mph 1020.5mb 41f 40f
3:24 14 18 mph 1020.6mb 41f 40f
3:18 15 18 mph 1020.6mb 41f 40f
3:12 16 18 mph 1020.7mb 41f 40f
3:06 14 18 mph 1020.8mb 41f 40f
3:00 14 17 mph 1020.8mb 41f 40f
2:54 14 17 mph 1021mb 41f 40f
2:48 13 17 mph 1021.1mb 41f 40f
2:42 16 18 mph 1021.1mb 41f 40f
2:36 14 18 mph 1021.1mb 41f 40f
2:30 14 17 mph 1021.4mb 41f 40f
2:24 14 17 mph 1021.4mb 41f 40f
2:18 14 15 mph 1021.5mb 41f 40f
2:12 13 16 mph 1021.5mb 41f 40f
2:06 13 16 mph 1021.6mb 41f 40f
2:00 14 17 mph 1021.7mb 41f 40f
1:54 13 16 mph 1021.6mb 41f 40f
1:48 11 15 mph 1021.6mb 41f 40f
1:42 14 17 mph 1021.6mb 41f 40f
1:36 13 16 mph 1021.6mb 41f 40f
1:30 13 16 mph 1021.7mb 41f 40f
1:24 13 17 mph 1021.8mb 41f 40f
1:18 11 17 mph 1021.8mb 41f 40f
1:12 11 17 mph 1021.7mb 41f 40f
1:06 11 16 mph 1021.6mb 41f 40f
1:00 11 17 mph 1021.6mb 41f 40f
12:54 13 17 mph 1021.6mb 41f 40f
12:48 13 17 mph 1021.7mb 41f 40f
12:42 15 17 mph 1021.7mb 41f 40f
12:36 14 17 mph 1021.9mb 41f 40f
12:30 10 17 mph 1021.9mb 41f 40f
12:24 14 17 mph 1022mb 41f 40f
12:18 14 20 mph 1021.9mb 41f 40f
12:12 17 21 mph 1022mb 41f 40f
12:06 14 16 mph 1022.1mb 41f 39f
12:00 15 17 mph 1022.3mb 41f 39f
11:54 15 18 mph 1022.3mb 41f 39f
11:48 14 17 mph 1022.3mb 41f 39f
11:42 15 17 mph 1022.2mb 41f 39f
11:36 13 17 mph 1022.2mb 41f 39f
11:30 15 17 mph 1022.3mb 41f 39f
11:24 14 17 mph 1022.4mb 41f 39f
11:18 14 17 mph 1022.3mb 41f 39f
11:12 15 18 mph 1022.3mb 41f 39f
11:06 16 21 mph 1022.3mb 41f 39f
11:00 15 20 mph 1022.4mb 41f 39f
10:54 13 15 mph 1022.3mb 41f 39f
10:48 15 20 mph 1022.3mb 41f 39f
10:42 17 21 mph 1022.3mb 41f 39f
10:36 15 18 mph 1022.4mb 41f 39f
10:30 15 21 mph 1022.4mb 41f 39f
10:24 15 17 mph 1022.3mb 41f 39f
10:18 15 18 mph 1022.3mb 41f 39f
10:12 15 17 mph 1022.4mb 41f 39f
10:06 15 17 mph 1022.4mb 41f 39f
10:00 13 18 mph 1022.3mb 41f 39f
9:30 16 18 mph 1022.1mb 41f 39f
9:24 16 21 mph 1022.1mb 41f 39f
9:18 16 21 mph 1022.2mb 41f 39f
9:12 15 18 mph 1022.3mb 41f 39f
9:06 16 18 mph 1022.2mb 41f 39f
9:00 13 15 mph 1022.5mb 41f 39f
8:54 13 16 mph 1022.6mb 41f 39f
8:48 11 17 mph 1022.7mb 41f 39f
8:42 14 16 mph 1022.7mb 41f 39f
8:36 15 16 mph 1022.8mb 41f 39f
8:30 15 17 mph 1022.7mb 41f 39f
8:24 15 16 mph 1022.7mb 41f 39f
8:18 13 16 mph 1022.7mb 41f 39f
8:12 15 18 mph 1022.7mb 41f 39f
8:06 15 17 mph 1022.7mb 41f 39f
8:00 11 14 mph 1022.8mb 41f 39f
7:54 10 13 mph 1022.9mb 41f 39f
7:48 10 13 mph 1023mb 41f 39f
7:42 11 13 mph 1022.9mb 41f 39f
7:36 11 15 mph 1022.9mb 41f 39f
7:30 14 15 mph 1023mb 41f 39f
7:24 10 13 mph 1023mb 41f 39f
7:18 8 10 mph 1023mb 41f 39f
7:12 9 10 mph 1023mb 41f 39f
7:06 9 11 mph 1023mb 41f 39f
7:00 10 13 mph 1022.9mb 41f 39f
6:54 8
mph
1022.9mb 41f 39f
6:48 8 10 mph 1022.9mb 41f 39f
6:42 8 9 mph 1022.8mb 41f 39f
6:36 9 10 mph 1022.8mb 41f 39f
6:30 8 9 mph 1022.7mb 41f 39f
6:24 7 9 mph 1022.7mb 41f 39f
6:18 7 9 mph 1022.6mb 41f 39f
6:12 8 10 mph 1022.6mb 40f 39f
6:06 8 10 mph 1022.6mb 41f 39f
6:00 8 10 mph 1022.6mb 41f 39f
5:54 9 11 mph 1022.5mb 41f 39f
5:48 10 11 mph 1022.4mb 41f 39f
5:42 9 10 mph 1022.4mb 41f 39f
5:36 9 13 mph 1022.3mb 41f 39f
5:30 9 11 mph 1022.3mb 41f 39f
5:24 9 11 mph 1022.4mb 41f 39f
5:18 8 11 mph 1022.4mb 41f 39f
5:12 10 11 mph 1022.4mb 41f 39f
5:06 10 11 mph 1022.5mb 41f 39f
5:00 9 11 mph 1022.5mb 41f 39f
4:54 9 10 mph 1022.4mb 41f 39f
4:48 9 10 mph 1022.3mb 41f 39f
4:42 10 13 mph 1022.3mb 41f 39f
4:36 10 11 mph 1022.5mb 41f 39f
4:30 10 11 mph 1022.6mb 41f 39f
4:24 9 11 mph 1022.7mb 41f 39f
4:18 10 13 mph 1022.7mb 41f 39f
4:12 10 11 mph 1022.8mb 41f 39f
4:06 11 13 mph 1022.9mb 41f 39f
4:00 10 13 mph 1022.9mb 41f 38f
3:54 9 11 mph 1022.8mb 41f 38f
3:48 10 13 mph 1022.8mb 41f 38f
3:42 9 11 mph 1022.9mb 41f 38f
3:36 9 13 mph 1022.9mb 41f 38f
3:30 9 11 mph 1022.9mb 41f 38f
3:24 9 11 mph 1022.9mb 41f 38f
3:18 10 11 mph 1023.1mb 41f 38f
3:12 10 13 mph 1023mb 41f 38f
3:06 10 11 mph 1022.9mb 41f 38f
3:00 9 11 mph 1023mb 41f 38f
2:54 10 11 mph 1022.9mb 41f 38f
2:48 9 13 mph 1023mb 41f 38f
2:42 10 11 mph 1022.8mb 41f 38f
2:36 11
mph
1022.8mb 41f 38f
2:30 10 11 mph 1022.9mb 41f 38f
2:24 10 11 mph 1022.9mb 41f 38f
2:18 9 10 mph 1022.9mb 41f 38f
2:12 9 11 mph 1022.8mb 41f 38f
2:06 10 11 mph 1022.8mb 41f 38f
2:00 10
mph
1022.9mb 41f 38f
1:54 9 10 mph 1022.9mb 41f 38f
1:48 9 10 mph - - -
1:42 8 10 mph - - -
1:36 8
mph
- - -
1:30 8 9 mph 1023.1mb 41f 38f
1:24 8 9 mph 1023.1mb 41f 38f
1:18 8 9 mph 1023.1mb 41f 38f
1:12 7 8 mph 1023.2mb 41f 38f
1:06 7 9 mph 1023.3mb 41f 38f
1:00 7 9 mph 1023.4mb 41f 38f
12:54 7 9 mph 1023.4mb 41f 38f
12:48 8 9 mph 1023.3mb 41f 38f
12:42 7 9 mph 1023.3mb 41f 39f
12:36 7 9 mph 1023.2mb 41f 39f
12:30 8 9 mph 1023.2mb 41f 39f
12:24 8 9 mph 1023.1mb 41f 39f
12:18 7 9 mph 1023.1mb 41f 39f
12:12 7 9 mph 1023.1mb 41f 39f
12:06 8 9 mph 1023.1mb 41f 39f
12:00 8 9 mph 1023mb 41f 39f
Do 04/20 11:54 8 9 mph 1022.9mb 41f 39f
11:48 8 9 mph 1022.8mb 41f 39f
11:42 9 10 mph 1022.7mb 41f 39f
11:36 8 10 mph 1022.7mb 41f 39f
11:30 10 11 mph 1022.7mb 41f 38f
11:24 9 10 mph 1022.6mb 41f 39f
11:18 9 10 mph 1022.7mb 41f 39f
11:12 9 10 mph 1022.6mb 41f 39f
11:06 8 9 mph 1023mb 41f 39f
11:00 7 8 mph 1023.1mb 41f 39f
10:54 7 8 mph 1023.2mb 41f 39f
10:48 7 9 mph 1023.1mb 41f 39f
10:42 8 9 mph 1023.1mb 41f 39f
10:36 8 9 mph 1023.2mb 41f 39f
10:30 8 9 mph 1023.4mb 41f 39f
10:24 7 8 mph 1023.6mb 41f 39f
10:18 6 8 mph 1023.4mb 41f 39f
10:12 7 8 mph 1023.5mb 41f 39f
10:06 8 9 mph 1023.4mb 41f 39f
10:00 9 11 mph 1023.3mb 41f 39f
9:54 10 11 mph 1023.1mb 41f 39f
9:48 9 10 mph 1023.2mb 41f 39f
9:42 9 10 mph 1023.2mb 41f 39f
9:36 8 10 mph 1023.2mb 41f 39f
9:30 9 10 mph 1023.2mb 41f 39f
9:24 8 9 mph 1023.1mb 41f 39f
9:18 9 10 mph 1023mb 41f 39f
9:12 9 10 mph 1023mb 41f 39f
9:06 9 10 mph 1023.2mb 41f 39f
9:00 8 10 mph 1023.2mb 41f 39f
8:54 9 10 mph 1023.1mb 41f 39f
8:48 7 10 mph 1023mb 41f 39f
8:42 8
mph
1023mb 41f 39f
8:36 7 9 mph 1023mb 41f 39f
8:30 8 10 mph 1022.9mb 41f 39f
8:24 8 9 mph 1023mb 41f 39f
8:18 8 9 mph 1023.1mb 41f 39f
8:12 8 9 mph 1023mb 41f 39f
8:06 8 9 mph 1023mb 41f 39f
8:00 8 9 mph 1023.1mb 41f 39f
7:54 8 9 mph 1023mb 41f 39f
7:48 9
mph
1022.9mb 41f 39f
7:42 8 10 mph 1023mb 41f 39f
7:36 8 9 mph 1022.8mb 41f 39f
7:30 8 9 mph 1022.8mb 41f 39f
7:24 8 10 mph 1022.8mb 41f 39f
7:18 7 9 mph 1022.8mb 41f 39f
7:12 8 10 mph 1022.6mb 41f 39f
7:06 9 10 mph 1022.5mb 41f 39f
7:00 8 10 mph 1022.4mb 41f 39f
6:54 9 10 mph 1022.4mb 40f 39f
6:48 9 11 mph 1022.3mb 40f 39f
6:42 9 10 mph 1022.3mb 40f 39f
6:36 9 11 mph 1022.1mb 40f 39f
6:30 9 10 mph 1022mb 40f 39f
6:24 10 11 mph 1021.9mb 40f 39f
6:18 10 11 mph 1021.9mb 40f 39f
6:12 10 11 mph 1022mb 40f 39f
6:06 10 13 mph 1022mb 40f 39f
6:00 9 11 mph 1022mb 40f 39f
5:54 11 13 mph 1022.1mb 40f 39f
5:48 11
mph
1022.2mb 40f 40f
5:42 11 13 mph 1022.3mb 40f 40f
5:36 10 11 mph 1022.2mb 40f 40f
5:30 9 11 mph 1022.1mb 40f 40f
5:24 10 11 mph 1022.1mb 40f 40f
5:18 10 11 mph 1022mb 40f 40f
5:12 9 10 mph 1021.8mb 40f 40f
5:06 9 11 mph 1021.8mb 40f 40f
5:00 10 11 mph 1021.7mb 40f 40f
4:54 9 11 mph 1021.8mb 40f 40f
4:48 9 10 mph 1021.9mb 40f 40f
4:42 9 10 mph 1021.8mb 40f 40f
4:36 9 11 mph 1021.7mb 40f 40f
4:30 10 11 mph 1021.6mb 40f 40f
4:24 10 11 mph 1021.6mb 40f 40f
4:18 7 10 mph 1021.7mb 40f 40f
4:12 8 10 mph 1021.7mb 40f 40f
4:06 8 9 mph 1021.7mb 40f 40f
4:00 8 9 mph 1021.7mb 40f 40f
3:54 8 10 mph 1021.6mb 40f 40f
3:48 9 11 mph 1021.5mb 40f 40f
3:42 9 11 mph 1021.4mb 40f 40f
3:36 9 11 mph 1021.5mb 40f 40f
3:30 10 11 mph 1021.5mb 40f 40f
3:24 11 13 mph 1021.3mb 40f 40f
3:18 10 13 mph 1021.4mb 40f 40f
3:12 10 13 mph 1021.4mb 40f 40f
3:06 10 13 mph 1021.2mb 40f 40f
3:00 10 13 mph 1021.3mb 40f 40f
2:54 10 11 mph 1021.4mb 40f 40f
2:48 10 13 mph 1021.4mb 40f 40f
2:42 10 13 mph 1021.4mb 40f 40f
2:36 11 13 mph 1021.4mb 40f 40f
2:30 10 13 mph 1021.3mb 40f 40f
2:24 10 13 mph 1021.2mb 40f 40f
2:18 10 13 mph 1021.3mb 40f 40f
2:12 9 13 mph 1021.3mb 40f 40f
2:06 10 13 mph 1021.3mb 40f 40f
2:00 9 13 mph 1021.2mb 40f 41f
1:54 10 13 mph 1021.3mb 40f 40f
1:48 9 11 mph 1021.3mb 40f 41f
1:42 10 14 mph 1021.2mb 40f 41f
1:36 10 14 mph 1021.1mb 40f 41f
1:30 9 13 mph 1021.1mb 40f 41f
1:24 11 13 mph 1021.1mb 40f 41f
1:18 10 13 mph 1021.1mb 40f 42f
1:12 7 10 mph 1021.1mb 40f 43f
1:06 7 10 mph 1021.1mb 40f 43f
1:00 6 9 mph 1021.1mb 40f 43f
12:54 7 11 mph 1021.1mb 40f 42f
12:48 6 8 mph 1021mb 40f 43f
12:42 5 9 mph 1021mb 40f 43f
12:36 6 9 mph 1021.1mb 40f 43f
12:30 3 8 mph 1021.1mb 40f 43f
12:24 3 10 mph 1021.1mb 40f 43f
12:18 5 8 mph 1021.2mb 40f 43f
12:12 6 11 mph 1021.2mb 40f 43f
12:06 8 11 mph 1021.2mb 40f 42f
12:00 5 11 mph 1021.1mb 40f 43f
11:54 7 10 mph 1021.1mb 40f 42f
11:48 6 8 mph 1021.2mb 40f 42f
11:42 6 14 mph 1021.1mb 40f 42f
11:36 6 10 mph 1021.1mb 40f 42f
11:30 8 13 mph 1021.2mb 40f 42f
11:24 3 7 mph 1021.2mb 40f 42f
11:18 6 11 mph 1021.2mb 40f 42f
11:12 6 8 mph 1021.1mb 40f 42f
11:06 5 8 mph 1021.1mb 40f 42f
11:00 6 9 mph 1021.2mb 40f 42f
10:54 5 11 mph 1021.4mb 40f 42f
10:48 5 9 mph 1021.4mb 40f 42f
10:42 6 13 mph 1021.5mb 40f 42f
10:36 8 11 mph 1021.5mb 40f 42f
10:30 6 14 mph 1021.5mb 40f 42f
10:24 5 14 mph 1021.5mb 40f 42f
10:18 6 10 mph 1021.6mb 40f 42f
10:12 7 13 mph 1021.6mb 40f 41f
10:06 5 11 mph 1021.6mb 40f 41f
10:00 6 11 mph 1021.6mb 40f 41f
9:54 6 10 mph 1021.6mb 40f 41f
9:48 6 9 mph 1021.5mb 40f 41f
9:42 7 11 mph 1021.5mb 40f 41f
9:36 8 16 mph 1021.4mb 40f 41f
9:30 7 11 mph 1021.4mb 40f 41f
9:24 8 14 mph 1021.4mb 40f 41f
9:18 6 10 mph 1021.4mb 40f 41f
9:12 3 13 mph 1021.3mb 40f 41f
9:06 8 11 mph 1021.4mb 40f 41f
9:00 5 11 mph 1021.4mb 40f 41f
8:54 3 11 mph 1021.5mb 40f 41f
8:48 8 13 mph 1021.6mb 40f 41f
8:42 7 10 mph 1021.5mb 40f 41f
8:36 5 9 mph 1021.5mb 40f 41f
8:30 7 10 mph 1021.6mb 40f 40f
8:24 5 10 mph 1021.6mb 40f 40f
8:18 5 10 mph 1021.7mb 40f 40f
8:12 5 8 mph 1021.8mb 40f 40f
8:06 5 10 mph 1021.8mb 40f 40f
8:00 5 10 mph 1021.8mb 40f 40f
7:54 6 9 mph 1021.8mb 40f 40f
7:48 6 13 mph 1021.8mb 40f 40f
7:42 8 15 mph 1021.7mb 40f 40f
7:36 5 11 mph 1021.7mb 40f 40f
7:30 7 11 mph 1021.7mb 40f 40f
7:24 7 17 mph 1021.6mb 40f 40f
7:18 8 16 mph 1021.5mb 40f 40f
7:12 7 13 mph 1021.5mb 40f 40f
7:06 6 10 mph 1021.5mb 40f 40f
7:00 8 13 mph 1021.6mb 40f 40f
6:54 5 9 mph 1021.5mb 40f 40f
6:48 8 14 mph 1021.4mb 40f 40f
6:42 6 11 mph 1021.3mb 40f 40f
6:36 6 10 mph 1021.3mb 40f 40f
6:30 7 11 mph 1021.5mb 40f 40f
6:24 6 10 mph 1021.6mb 40f 39f
6:18 7 14 mph 1021.6mb 40f 39f
6:12 6 15 mph 1021.7mb 40f 39f
6:06 6 9 mph 1021.6mb 40f 39f
6:00 6 9 mph 1021.7mb 40f 39f
5:54 8 15 mph 1021.7mb 40f 39f
5:48 8 15 mph 1021.7mb 40f 39f
5:42 7 11 mph 1021.7mb 40f 39f
5:36 9 16 mph 1021.8mb 40f 39f
5:30 7 14 mph 1021.8mb 40f 39f
5:24 6 13 mph 1021.8mb 40f 39f
5:18 7 11 mph 1021.9mb 40f 39f
5:12 8 11 mph 1021.9mb 40f 38f
5:06 7 13 mph 1021.9mb 40f 38f
5:00 8 16 mph 1021.9mb 40f 38f
4:54 6 14 mph 1022mb 40f 38f
4:48 3 16 mph 1022mb 40f 38f
4:42 5 11 mph 1022mb 40f 38f
4:36 5 17 mph 1022mb 40f 38f
4:30 10 14 mph 1022.1mb 40f 38f
4:24 7 13 mph 1022.1mb 40f 38f
4:18 6 11 mph 1022.2mb 40f 38f
4:12 7 14 mph 1022.2mb 40f 38f
4:06 7 13 mph 1022.2mb 40f 38f
4:00 7 16 mph 1022.3mb 40f 38f
3:54 6 13 mph 1022.2mb 40f 38f
3:48 7 14 mph 1022.3mb 40f 38f
3:42 7 14 mph 1022.3mb 40f 38f
3:36 6 15 mph 1022.4mb 40f 38f
3:30 3 10 mph 1022.4mb 40f 38f
3:24 7 10 mph 1022.3mb 40f 38f
3:18 6 10 mph 1022.5mb 40f 37f
3:12 7 14 mph 1022.5mb 40f 37f
3:06 7 13 mph 1022.7mb 40f 37f
3:00 7 13 mph 1022.6mb 40f 37f
2:54 5 11 mph 1022.6mb 40f 37f
2:48 7 11 mph 1022.7mb 40f 37f
2:42 7 13 mph 1022.7mb 40f 37f
2:36 9 16 mph 1022.7mb 40f 37f
2:30 6 11 mph 1022.7mb 40f 37f
2:24 5 13 mph 1022.8mb 40f 37f
2:18 9 15 mph 1022.8mb 40f 37f
2:12 6 15 mph 1022.8mb 40f 37f
2:06 7 11 mph 1023mb 40f 36f
2:00 6 13 mph 1023.2mb 40f 36f
1:54 7 11 mph 1023.2mb 40f 36f
1:48 8 17 mph 1023.2mb 40f -
1:42 8 14 mph 1023.4mb 40f -
1:36 9 15 mph 1023.6mb 40f -
1:30 6 11 mph 1023.7mb 40f 35f
1:24 7 13 mph 1023.7mb 40f 35f
1:18 5 10 mph 1023.6mb 40f 35f
1:12 3 10 mph 1023.7mb 40f 35f
1:06 2 10 mph 1023.9mb 40f 36f
1:00 8 11 mph 1023.8mb 40f 36f
12:54 6 14 mph 1023.9mb 40f 35f
12:48 7 13 mph 1024mb 40f 35f
12:42 6 8 mph 1024.2mb 40f 35f
12:36 5 10 mph 1024.2mb 40f 35f
12:30 7 16 mph 1024.3mb 40f 35f
12:24 3 11 mph 1024.3mb 40f 35f
12:18 6 15 mph 1024.4mb 40f 35f
12:12 7 16 mph 1024.5mb 40f 35f
12:06 3 8 mph 1024.7mb 40f 35f
12:00 6 11 mph 1024.6mb 40f 35f
Mi 04/19 11:54 10 20 mph 1024.5mb 40f 35f
11:48 6 14 mph 1024.6mb 40f 35f